Temperature
9 9 9 9 8 8 8 7 7 7 7 7 7 7 6 6 5 5 4 4 3 3 2 1 1 1 0 -0 -1 -1 -1 -1 -2 -2 -2 -2 -2 -2
9 9 9 8 8 8 7 7 7 6 6 6 6 6 5 5 4 4 4 3 3 2 2 1 0 0 -0 -1 -1 -2 -2 -2 -2 -2 -3 -3 -3 -3
9 9 8 8 8 8 7 7 7 6 6 6 6 5 5 4 4 3 3 3 2 2 1 0 -0 -0 -1 -1 -2 -2 -2 -3 -3 -3 -3 -3 -3 -3
9 8 8 8 8 7 7 7 6 6 5 5 5 5 4 4 3 3 2 2 1 1 1 -0 -1 -1 -1 -2 -2 -3 -3 -3 -3 -4 -4 -4 -4 -4
8 8 8 8 7 7 7 7 6 6 5 5 4 4 4 3 3 2 2 1 1 0 -0 -1 -1 -1 -2 -2 -3 -3 -3 -4 -4 -4 -5 -5 -5 -5
8 8 8 7 7 7 7 6 6 5 5 4 4 3 3 3 2 2 2 1 0 -0 -0 -1 -1 -2 -2 -3 -3 -3 -4 -4 -4 -5 -5 -5 -5 -5
8 8 7 7 7 7 6 6 5 5 4 4 3 3 2 2 1 1 0 0 -0 -1 -1 -1 -2 -2 -3 -3 -3 -4 -4 -5 -5 -5 -6 -6 -6 -6
8 8 7 7 7 6 6 5 5 4 4 3 3 2 2 1 1 -0 -1 -1 -1 -2 -2 -2 -2 -3 -3 -4 -4 -5 -5 -6 -6 -6 -6 -6 -6 -6
8 8 7 7 6 6 5 5 4 4 3 3 2 2 1 0 -0 -1 -1 -1 -2 -2 -3 -2 -3 -3 -4 -4 -5 -5 -6 -6 -6 -6 -7 -7 -7 -7
8 7 7 7 6 6 5 5 4 4 3 2 2 1 1 -0 -1 -1 -2 -2 -2 -3 -3 -4 -4 -4 -4 -4 -5 -5 -6 -6 -7 -7 -7 -7 -7 -7
7 7 7 6 6 5 5 4 4 3 2 2 1 1 0 -1 -1 -2 -2 -3 -3 -3 -4 -5 -5 -5 -4 -4 -5 -6 -6 -7 -7 -7 -7 -7 -7 -7
7 7 6 5 5 4 4 4 3 3 2 1 1 0 -0 -1 -1 -2 -3 -3 -4 -5 -5 -6 -6 -7 -6 -5 -5 -6 -6 -7 -7 -7 -7 -7 -7 -8
7 6 6 5 5 4 4 3 2 2 1 1 0 -0 -1 -1 -2 -3 -3 -4 -5 -5 -6 -7 -7 -7 -8 -7 -6 -6 -7 -7 -7 -7 -7 -7 -7 -8
6 6 5 5 4 4 3 2 2 1 1 1 0 -0 -1 -2 -2 -3 -4 -4 -5 -6 -6 -7 -7 -7 -8 -8 -7 -6 -7 -7 -7 -7 -7 -7 -7 -7
6 5 5 4 4 3 2 2 1 1 1 0 -1 -1 -2 -2 -3 -4 -4 -5 -5 -6 -6 -7 -7 -7 -7 -8 -8 -7 -7 -7 -7 -8 -7 -7 -7 -7
5 5 4 4 3 2 2 1 1 0 -0 -1 -1 -2 -2 -3 -4 -4 -5 -5 -5 -5 -6 -7 -7 -7 -7 -7 -7 -7 -8 -8 -8 -8 -7 -7 -7 -7
5 4 4 3 2 2 1 1 0 -0 -1 -1 -2 -2 -3 -4 -4 -5 -5 -6 -6 -6 -6 -6 -7 -7 -7 -7 -7 -7 -8 -8 -8 -8 -8 -7 -7 -7
4 4 3 3 2 1 1 0 -0 -1 -1 -2 -2 -3 -4 -4 -5 -5 -6 -6 -7 -7 -7 -7 -7 -6 -6 -6 -7 -8 -8 -8 -8 -8 -8 -8 -7 -7
4 3 3 2 2 1 1 0 -0 -1 -2 -2 -3 -4 -4 -5 -5 -6 -6 -7 -7 -7 -7 -8 -8 -8 -8 -8 -7 -8 -9 -8 -8 -8 -8 -8 -7 -7
3 3 2 2 1 1 0 -0 -1 -1 -2 -3 -3 -4 -5 -5 -6 -6 -7 -7 -7 -7 -7 -8 -8 -8 -9 -9 -9 -7 -8 -9 -8 -8 -8 -7 -7 -7
3 2 2 1 1 0 -0 -1 -1 -2 -3 -3 -4 -4 -5 -6 -6 -7 -7 -7 -7 -7 -8 -8 -8 -9 -9 -9 -8 -8 -7 -8 -8 -8 -8 -8 -7 -7
2 2 1 1 0 -0 -1 -1 -2 -2 -3 -4 -4 -5 -5 -6 -6 -7 -7 -7 -8 -8 -8 -8 -8 -8 -8 -9 -8 -8 -8 -7 -7 -8 -8 -8 -9 -8
2 1 1 0 -0 -1 -1 -2 -2 -3 -3 -4 -4 -5 -6 -6 -7 -7 -7 -8 -8 -8 -8 -8 -8 -8 -8 -9 -8 -8 -8 -8 -7 -7 -7 -7 -8 -8
Wind_Speed
8 8 6 5 4 4 4 4 4 3 4 4 3 2 5 6 7 6 8 10 11 12 14 15 16 17 18 19 19 20 21 21 22 22 23 23 24 24
7 8 7 5 4 4 4 3 4 5 4 3 3 2 2 3 5 6 8 9 11 13 15 15 16 17 18 18 19 20 20 21 21 21 22 23 23 23
8 9 8 6 5 4 4 3 3 4 5 3 2 1 1 2 4 5 7 8 9 13 14 15 16 17 17 18 19 19 20 20 20 21 21 21 22 22
10 9 8 6 6 5 4 5 4 4 4 4 2 2 2 2 2 3 5 7 9 12 13 15 16 16 17 18 18 18 18 19 19 20 21 21 21 21
10 10 9 8 7 5 5 5 4 3 3 3 3 1 1 1 2 3 4 5 8 11 12 14 15 16 16 17 17 18 18 18 19 20 20 20 20 21
9 10 10 10 10 8 6 5 4 3 2 2 2 2 2 2 1 3 4 3 5 7 9 12 14 15 15 16 17 17 18 18 18 19 20 20 20 20
8 9 9 10 10 8 6 6 5 4 3 2 2 1 2 2 2 2 4 4 5 3 4 7 8 8 11 14 15 16 17 17 18 19 20 20 20 20
9 8 7 8 8 9 8 8 8 6 5 3 3 3 4 3 2 2 2 3 4 3 3 6 4 5 7 10 14 16 16 17 19 20 20 21 20 20
9 8 6 6 8 6 7 7 6 6 6 5 4 5 4 4 2 2 2 3 4 4 2 4 3 5 7 11 15 15 16 17 19 20 20 21 20 20
9 9 8 7 7 8 6 5 3 3 3 3 4 4 3 2 3 2 3 2 3 3 1 3 3 5 7 9 12 13 16 18 19 20 20 20 20 20
7 8 8 7 10 10 7 6 3 1 1 2 2 1 0 0 1 2 1 2 4 3 1 2 3 6 5 4 8 13 16 18 19 20 20 20 20 19
6 6 9 9 11 11 8 7 5 3 2 2 2 2 3 2 2 1 1 1 2 3 2 2 3 4 5 4 4 9 11 15 18 19 19 19 20 13
7 5 5 10 11 11 8 5 6 5 4 3 2 1 2 1 1 1 0 1 2 3 3 2 2 2 3 5 5 5 6 8 11 13 16 19 19 15
7 6 6 11 10 10 6 6 7 6 4 3 2 1 0 1 1 2 3 3 3 5 6 3 2 3 4 6 6 5 6 8 7 7 9 17 17 18
7 10 11 12 10 7 8 9 7 4 3 2 2 1 1 1 0 1 2 4 5 5 5 6 4 4 4 5 6 6 6 6 5 6 8 9 8 9
9 11 13 12 8 7 7 5 3 3 3 2 1 1 0 0 0 1 1 2 3 4 5 7 7 5 5 6 7 8 6 5 7 9 9 9 8 8
10 7 5 5 4 4 3 3 3 3 2 2 2 1 0 1 1 1 1 1 2 3 5 5 7 8 7 7 6 7 7 7 8 8 10 10 9 7
11 7 6 6 5 5 4 3 2 2 2 2 2 1 0 0 1 2 1 1 3 3 4 4 5 5 4 4 6 6 6 6 8 9 8 9 10 8
7 7 6 6 5 5 4 3 3 2 2 2 2 1 1 0 1 1 2 2 3 3 4 3 3 4 6 7 6 5 5 8 9 9 8 8 10 11
6 7 6 6 5 5 4 3 3 3 2 2 2 1 1 1 1 1 2 3 3 3 4 3 3 3 4 5 5 6 10 8 8 9 9 8 8 12
6 6 6 6 5 5 4 4 4 3 3 2 2 2 1 1 1 2 2 4 3 3 4 5 6 9 4 3 5 6 7 11 11 9 9 8 7 5
7 6 6 6 5 5 5 4 4 3 3 2 2 2 1 1 1 2 2 2 3 3 4 5 5 4 2 3 7 8 8 9 13 14 11 8 5 5
7 6 6 6 5 5 5 5 4 3 3 3 2 2 2 1 1 1 2 2 3 4 4 4 4 3 3 3 5 6 9 10 8 8 7 12 13 13
Wind_Direction
194 191 193 193 185 181 167 164 170 221 257 256 257 263 246 245 257 260 265 281 291 298 302 305 308 310 312 313 313 314 314 314 314 314 313 312 313 313
188 188 196 190 184 181 179 178 176 187 231 250 241 267 259 262 271 269 269 287 294 301 304 307 309 311 312 312 313 313 314 315 316 316 316 315 315 314
187 190 196 184 182 185 179 178 184 177 221 262 253 268 262 274 292 283 283 286 295 303 305 308 311 313 314 314 314 315 316 318 318 319 319 318 317 317
191 188 191 183 186 184 184 192 194 188 197 242 260 262 255 270 288 296 297 295 293 299 305 310 313 313 315 316 316 317 318 319 320 321 321 320 320 319
189 189 188 182 193 191 190 197 194 182 183 208 245 252 270 303 306 301 303 295 301 301 307 312 313 315 318 319 320 320 321 321 321 321 321 321 321 320
187 188 189 190 197 194 194 195 179 174 177 203 243 263 271 295 300 292 305 304 306 301 308 312 313 316 319 321 321 322 323 323 323 323 323 322 321 320
182 187 190 190 193 188 185 181 172 176 182 205 235 267 271 291 280 273 292 308 298 289 311 309 308 306 312 318 320 320 323 325 325 325 325 324 323 322
181 182 181 181 183 183 182 177 174 178 190 194 216 240 256 251 247 284 292 323 304 295 306 299 297 298 301 306 314 322 325 328 329 330 329 327 324 322
178 175 172 177 173 174 177 173 183 191 186 184 206 227 232 227 217 249 259 270 270 285 310 286 292 297 302 308 317 323 328 332 332 331 329 327 326 324
174 174 173 171 171 163 155 156 164 184 193 190 202 221 219 209 200 216 242 281 287 290 285 274 292 300 308 301 308 324 332 333 333 331 330 329 328 326
165 165 165 165 163 155 153 158 159 169 142 151 146 130 69 278 110 79 20 349 314 300 313 293 297 310 300 288 301 320 328 331 331 331 330 329 329 330
150 157 164 163 163 162 163 166 177 186 144 114 75 60 52 46 57 88 176 292 307 291 297 310 299 327 312 290 292 305 313 322 328 329 330 331 331 330
159 162 167 162 162 166 165 172 177 154 143 136 117 87 55 37 14 2 264 194 236 259 276 310 292 297 277 299 301 293 297 307 315 317 326 330 331 331
162 161 157 155 155 155 155 147 137 126 122 121 120 130 177 294 315 327 318 307 271 255 263 266 259 274 287 296 293 300 305 299 301 306 315 324 327 327
148 147 145 144 140 139 136 133 128 124 127 135 170 206 231 240 337 349 340 340 328 309 291 283 269 275 268 271 285 292 307 305 304 312 313 314 310 312
130 133 131 128 122 123 126 122 119 136 142 161 170 152 104 79 29 357 337 341 335 315 308 302 291 281 278 272 273 284 289 293 310 314 313 308 303 299
131 121 120 127 127 120 116 114 115 120 122 125 132 128 80 12 352 355 351 347 322 307 315 317 312 296 272 266 277 280 289 296 301 312 318 315 308 299
133 140 146 149 153 153 149 140 139 145 144 141 138 145 162 290 330 340 338 321 306 298 301 309 328 334 327 293 248 270 288 298 307 311 310 312 310 308
136 149 154 158 159 158 158 159 165 160 147 145 151 161 169 228 317 320 321 317 307 299 299 302 317 335 333 325 303 274 290 308 312 312 308 304 302 304
145 154 158 159 159 160 161 159 153 145 144 152 159 169 179 203 277 298 301 303 306 307 310 310 306 309 304 299 295 293 300 302 307 308 309 305 293 294
151 150 153 155 155 157 157 156 156 159 158 162 170 180 190 197 260 285 296 314 319 306 309 303 293 310 299 294 299 300 299 308 310 303 305 310 310 308
151 151 152 152 154 155 155 154 154 156 159 164 177 190 202 208 242 273 294 299 299 297 296 297 306 318 316 299 306 306 308 314 320 320 312 302 309 317
152 151 151 153 152 152 154 157 160 167 172 176 182 192 198 217 248 264 283 294 302 306 312 315 322 321 301 287 298 304 309 320 322 326 320 325 324 311
Height
1508 1510 1512 1513 1515 1516 1516 1516 1517 1514 1512 1512 1512 1510 1509 1507 1506 1503 1501 1499 1496 1493 1489 1486 1483 1479 1476 1472 1468 1464 1461 1457 1453 1449 1445 1442 1439 1435
1503 1505 1507 1509 1510 1511 1512 1512 1512 1511 1509 1508 1507 1506 1505 1503 1501 1499 1496 1494 1491 1488 1484 1481 1478 1474 1470 1466 1463 1459 1455 1451 1448 1444 1440 1436 1433 1429
1498 1500 1502 1504 1505 1507 1507 1507 1507 1507 1505 1504 1503 1502 1500 1498 1496 1494 1492 1489 1486 1483 1479 1476 1472 1469 1465 1461 1457 1454 1450 1446 1442 1438 1435 1431 1428 1424
1492 1494 1497 1499 1501 1502 1502 1503 1503 1502 1501 1500 1499 1497 1496 1494 1491 1489 1487 1484 1481 1478 1475 1471 1467 1463 1459 1456 1452 1448 1445 1441 1437 1434 1430 1426 1423 1419
1487 1489 1492 1494 1495 1497 1497 1498 1498 1498 1497 1495 1494 1493 1491 1489 1487 1484 1482 1479 1476 1473 1470 1466 1462 1459 1454 1451 1447 1443 1440 1436 1433 1429 1425 1421 1418 1414
1482 1484 1487 1489 1490 1492 1493 1493 1493 1493 1492 1491 1489 1488 1486 1484 1482 1479 1476 1474 1471 1469 1465 1462 1458 1454 1450 1446 1443 1439 1435 1432 1428 1424 1421 1417 1413 1410
1477 1480 1482 1484 1486 1487 1488 1488 1488 1488 1487 1486 1485 1483 1481 1479 1477 1474 1472 1469 1466 1464 1460 1458 1454 1450 1446 1442 1438 1434 1431 1427 1424 1420 1416 1412 1409 1405
1472 1475 1477 1479 1481 1482 1483 1483 1483 1483 1482 1481 1480 1479 1477 1475 1473 1471 1468 1465 1461 1460 1455 1453 1450 1446 1442 1438 1434 1430 1427 1423 1419 1415 1411 1408 1404 1401
1468 1470 1472 1474 1476 1477 1478 1479 1479 1478 1478 1478 1476 1475 1473 1472 1470 1467 1464 1461 1459 1455 1451 1447 1445 1441 1438 1434 1430 1427 1423 1419 1415 1411 1407 1403 1400 1396
1463 1465 1468 1469 1471 1472 1473 1474 1474 1474 1474 1473 1472 1471 1470 1468 1466 1464 1461 1458 1455 1452 1448 1443 1439 1436 1433 1430 1427 1423 1419 1415 1411 1406 1402 1399 1395 1391
1459 1461 1463 1465 1467 1468 1469 1469 1470 1470 1470 1469 1469 1467 1466 1464 1462 1460 1457 1454 1450 1448 1445 1441 1436 1431 1428 1426 1423 1419 1415 1411 1407 1402 1398 1394 1391 1387
1454 1457 1459 1461 1462 1464 1465 1465 1465 1466 1466 1465 1465 1463 1462 1460 1458 1456 1453 1451 1447 1444 1441 1438 1434 1430 1424 1421 1419 1416 1411 1407 1403 1399 1395 1391 1387 1383
1450 1453 1455 1457 1459 1460 1461 1461 1462 1462 1462 1461 1460 1459 1458 1456 1454 1452 1450 1448 1445 1442 1439 1436 1432 1428 1424 1418 1414 1412 1408 1403 1399 1395 1391 1387 1383 1380
1446 1449 1451 1453 1455 1456 1457 1458 1458 1458 1458 1457 1457 1455 1454 1452 1450 1449 1447 1445 1442 1440 1436 1433 1430 1426 1421 1416 1411 1407 1405 1401 1396 1392 1388 1384 1380 1377
1443 1446 1448 1450 1452 1453 1454 1454 1455 1455 1454 1454 1453 1452 1450 1449 1447 1445 1444 1442 1440 1437 1434 1430 1427 1423 1419 1414 1409 1405 1400 1396 1393 1389 1384 1381 1377 1373
1440 1442 1445 1447 1448 1449 1450 1451 1451 1451 1451 1451 1450 1449 1447 1445 1444 1442 1440 1438 1436 1433 1431 1428 1424 1420 1416 1412 1408 1403 1399 1395 1390 1386 1381 1378 1374 1371
1436 1439 1441 1443 1444 1446 1447 1448 1448 1448 1448 1447 1446 1445 1444 1442 1441 1439 1437 1435 1432 1430 1427 1424 1421 1417 1413 1409 1405 1401 1397 1392 1388 1383 1378 1374 1371 1368
1434 1436 1438 1440 1441 1442 1444 1444 1445 1445 1444 1444 1443 1442 1441 1439 1438 1436 1434 1432 1430 1428 1425 1421 1417 1413 1410 1406 1404 1398 1394 1390 1385 1381 1377 1372 1367 1365
1431 1433 1435 1436 1438 1440 1440 1441 1441 1442 1441 1441 1440 1439 1438 1437 1435 1433 1432 1430 1428 1426 1423 1420 1416 1411 1407 1403 1400 1398 1392 1387 1382 1378 1375 1370 1366 1362
1427 1429 1432 1434 1435 1437 1437 1438 1438 1438 1438 1438 1437 1436 1435 1434 1433 1431 1429 1428 1426 1424 1421 1418 1415 1411 1408 1404 1399 1395 1392 1386 1381 1376 1372 1368 1364 1361
1424 1427 1429 1431 1432 1434 1435 1435 1436 1435 1435 1435 1434 1433 1432 1431 1430 1429 1427 1426 1424 1422 1419 1416 1414 1411 1407 1403 1399 1394 1390 1386 1381 1376 1370 1366 1362 1358
1422 1424 1426 1428 1430 1431 1432 1432 1432 1433 1432 1432 1432 1431 1430 1429 1428 1427 1425 1424 1422 1420 1418 1415 1412 1409 1405 1402 1397 1393 1388 1385 1381 1376 1371 1367 1364 1359
1419 1421 1423 1425 1427 1428 1429 1429 1430 1430 1430 1429 1429 1428 1428 1427 1426 1425 1423 1422 1420 1418 1416 1413 1410 1407 1404 1401 1397 1392 1388 1383 1379 1375 1372 1368 1364 1361